Regional Weather Roundup
Issued by NWS

Home | Current Version | Previous Version | Text Only | Print | Product List | Glossary Off
Versions: 1 2 3 4 5 6 7 8 9 10 11 12 13 14 15 16 17 18 19 20 21 22 23 24 25 26 27 28 29 30 31 32 33 34 35 36 37 38 39 40 41 42 43 44 45 46 47 48 49 50

000
ASUS45 KSLC 251910
RWRUT

UTAH REGIONAL WEATHER ROUNDUP
NATIONAL WEATHER SERVICE SALT LAKE CITY UT
100 PM MDT SAT APR 25 2015

UTZ001>011-023>025-252000-

NORTHERN UTAH

CITY           SKY/WX    TMP DP  RH WIND       PRES   REMARKS
BRIGHAM CITY   MOSUNNY   54  32  44 CALM      29.78F
HILL AFB       PTSUNNY   54  32  43 SW5       29.76F
LOGAN          SUNNY     53  31  42 CALM      29.78F
OGDEN          PTSUNNY   55  30  38 VRB3      29.76F
PROVO AIRPORT  PTSUNNY   54  41  62 VRB6      29.77F
SALT LAKE CITY PTSUNNY   57  38  48 S14       29.74F
VERNAL         MOSUNNY   57  27  31 S7        29.79F
WENDOVER       CLOUDY    54  30  40 E6        29.74F
HEBER CITY     PTSUNNY   52  36  54 CALM      29.78F
WEST JORDAN    MOSUNNY   55  39  54 S17G24    29.75F

$$

UTZ012>022-026-027-252000-

SOUTHERN/CENTRAL UTAH

CITY           SKY/WX    TMP DP  RH WIND       PRES   REMARKS
BLANDING       CLOUDY    52  38  58 S10G17    29.92F
BRYCE CANYON   CLOUDY    44  34  67 S14G23    29.84F
CEDAR CITY     CLOUDY    51  41  68 SW25      29.73F
DELTA          CLOUDY    56  40  54 S6        29.71F
HANKSVILLE     CLOUDY    57  41  54 NE12G20   29.78F
MILFORD        CLOUDY    52  24  33 S13       29.72F
MOAB/CYNLANDS  LGT RAIN  56  42  59 SE12      29.77F
PRICE          LGT RAIN  44  40  85 E8        29.80F
ST GEORGE      CLOUDY    57  46  67 W6        29.79F
KANAB          CLOUDY    55  34  44 S10       29.82F

$$

REGIONAL REPORTS     COLORADO/ARIZONA

CITY           SKY/WX    TMP DP  RH WIND       PRES   REMARKS
CRAIG, CO      CLOUDY    46  39  76 E6        29.86F
GRAND JUNCTION PTSUNNY   52  41  66 VRB5      29.84F
RIFLE          PTSUNNY   46  37  71 S5        29.88F
MONTROSE       PTSUNNY   51  40  65 N15G22    29.87F
CORTEZ         PTSUNNY   54  42  64 SW22      29.90F
PAGE, AZ       CLOUDY    65  32  29 SW12G23   29.77F
GRAND CANYON   CLOUDY    50  33  52 S24G32    29.88F
KINGMAN        CLOUDY    63  33  32 SW26G38   29.85F
FLAGSTAFF      LGT RAIN  43  41  93 SW18G25   29.93F

$$

REGIONAL REPORTS    NEVADA/IDAHO/WYOMING

CITY           SKY/WX    TMP DP  RH WIND       PRES   REMARKS
LAS VEGAS, NV  CLOUDY    63  29  27 S18G26    29.71F
ELY            CLOUDY    46  35  65 SE6       29.72F
ELKO           LGT RAIN  39  36  89 W9        29.75S WCI  33
POCATELLO, ID  PTSUNNY   53  30  41 CALM      29.79F
BURLEY         CLOUDY    52  31  44 VRB5      29.76F
EVANSTON, WY   PTSUNNY   48  28  46 SW10G20   29.80F
ROCK SPRINGS   PTSUNNY   48  26  42 W12       29.82S
KEMMERER       CLOUDY    43  28  56 W13       29.82F

$$



USA.gov is the U.S. government's official web portal to all federal, state and local government web resources and services.